Wind_Speed
14 19 24 20 18 19 19 18 20 25 28 33 33 28 27 27 27 28 26 24 20 19 17 15 12 9 6 7 7 4 8 12 17 10 9 4 4 2 5 9 11 7 12
13 12 17 18 18 21 21 19 21 26 29 30 26 28 30 26 30 29 25 23 20 19 16 14 12 9 8 7 8 8 5 8 15 7 2 4 3 3 14 8 7 14 11
18 16 13 18 21 21 24 22 24 27 30 33 33 31 28 29 26 26 25 21 20 19 15 13 11 10 7 8 8 8 8 6 10 12 6 2 2 8 6 11 10 8 15
19 18 15 15 22 28 25 22 24 30 32 35 37 44 31 27 22 32 28 24 20 18 15 13 11 9 8 8 7 8 8 7 6 3 6 2 3 3 5 4 10 7 20
17 19 16 22 26 27 28 26 26 29 33 36 39 38 27 23 32 31 29 24 22 17 15 12 10 9 8 7 7 6 6 7 4 3 3 2 5 5 6 9 10 22 20
14 17 18 20 18 26 25 26 29 30 33 36 35 36 39 36 36 34 31 26 23 19 15 12 10 8 7 6 5 5 5 5 5 5 4 3 3 6 7 7 16 18 18
12 11 10 11 16 24 27 27 29 29 32 35 34 34 37 39 43 39 35 30 25 20 15 11 9 7 6 5 4 4 5 5 6 6 6 6 7 8 11 15 18 12 25
10 12 14 12 20 25 29 27 29 29 31 30 30 31 34 34 35 35 33 27 24 20 15 12 9 6 5 3 3 4 6 7 8 7 8 10 10 10 11 13 17 14 11
10 12 12 16 20 23 28 32 31 30 31 32 33 31 32 34 35 32 28 25 22 19 15 11 8 6 3 2 4 6 7 8 8 8 10 11 12 14 14 14 14 15 12
10 10 11 13 19 20 22 27 31 33 32 31 30 30 32 35 33 29 27 23 20 17 13 10 7 4 2 3 5 7 8 8 9 10 11 12 13 14 15 15 16 17 21
11 11 11 14 18 20 23 26 32 35 32 33 34 36 36 33 30 27 24 21 18 15 12 9 6 3 2 4 6 7 7 9 11 11 11 14 15 14 15 16 17 20 22
6 6 10 14 20 21 21 24 29 32 33 35 38 38 35 32 29 25 22 19 17 13 10 7 4 2 3 5 7 7 8 10 12 13 14 14 15 17 17 18 19 20 23
4 6 9 11 15 22 22 24 27 32 35 37 39 37 34 31 27 24 20 17 15 13 9 6 3 3 4 5 7 8 10 11 12 14 14 16 16 17 17 18 20 22 24
1 5 9 11 15 19 24 24 27 34 36 36 36 35 32 29 26 22 19 16 13 11 7 4 3 4 6 7 8 9 11 12 14 16 17 17 16 18 19 20 21 21 25
5 6 9 11 15 19 22 25 30 35 36 36 34 32 29 27 24 21 18 15 11 9 5 3 4 6 7 8 9 11 14 15 16 17 19 17 18 20 21 23 24 26 26
8 8 10 13 14 20 22 25 29 33 36 34 32 30 28 25 22 19 16 13 10 7 4 3 5 7 9 10 10 12 13 15 14 17 18 19 21 21 21 24 25 27 30
11 12 13 13 16 21 26 27 30 35 34 33 30 28 26 24 20 17 14 11 8 5 3 4 7 9 10 11 11 13 14 14 16 18 20 20 19 22 23 25 27 29 21
12 12 11 14 19 23 26 31 32 32 32 30 29 26 24 22 19 15 12 9 6 4 4 5 8 10 12 12 13 14 14 15 17 20 21 20 21 21 25 30 25 25 27
11 12 19 20 23 25 30 32 29 30 30 28 27 25 23 21 17 13 10 7 5 3 4 7 9 12 13 13 14 15 15 16 18 21 19 19 21 25 29 28 27 29 28
16 19 23 24 24 24 31 31 26 26 24 27 25 22 20 18 15 12 8 6 4 4 6 8 10 11 13 15 15 15 16 17 20 19 19 18 24 28 28 30 27 25 29
18 22 22 22 23 28 32 26 24 21 27 26 24 21 17 15 12 10 6 4 3 5 8 10 12 12 14 15 14 16 17 19 20 22 22 23 26 29 30 29 24 24 29
15 19 22 21 22 28 32 24 23 27 28 26 24 20 16 13 10 7 5 3 5 7 9 13 16 15 17 17 16 16 17 20 22 22 24 26 28 29 28 24 22 25 25
14 18 23 24 22 24 31 29 28 30 28 25 22 18 15 11 8 5 4 4 7 8 10 12 13 16 16 20 17 17 19 21 22 22 25 27 27 26 22 20 23 22 19
15 19 23 22 21 26 29 33 31 28 26 23 19 16 12 9 6 4 4 6 7 8 11 12 14 16 17 16 16 18 21 20 21 23 21 24 23 19 20 20 19 19 20
16 18 21 23 23 30 31 30 28 25 23 20 17 13 9 6 4 4 5 7 8 9 12 12 14 15 17 17 21 22 23 23 24 26 20 20 19 20 20 20 21 21 22
19 21 23 27 25 31 29 25 22 20 21 18 13 10 7 4 4 4 6 6 8 9 9 11 13 16 16 19 20 21 22 24 23 20 17 18 18 19 20 21 24 24 24
Wind_Direction
254 262 265 264 261 244 231 225 211 204 193 185 175 171 169 173 172 171 168 166 163 157 154 140 130 116 99 80 64 57 39 24 15 6 359 5 352 265 238 304 331 347 327
248 251 254 252 241 239 222 208 203 197 192 179 171 171 164 160 160 159 158 158 159 148 148 138 126 112 99 86 68 58 52 37 32 25 22 3 342 12 326 300 316 319 329
242 241 238 226 229 220 215 202 196 191 187 183 173 160 156 149 146 149 149 151 151 146 142 132 122 113 99 88 75 60 58 59 44 51 40 343 327 328 306 306 306 312 321
237 237 229 216 215 219 210 202 194 190 188 185 173 165 159 154 162 158 154 151 149 144 138 129 121 112 103 97 80 62 54 52 49 44 32 60 276 319 310 282 289 291 312
231 230 226 214 214 209 198 194 190 189 186 181 177 163 153 159 160 155 149 146 143 141 136 128 121 118 113 97 80 67 53 48 52 32 356 345 306 263 256 302 302 308 311
235 235 229 217 200 196 187 187 186 186 184 182 173 169 166 159 154 153 151 149 145 141 135 130 128 119 111 97 81 61 39 27 17 357 331 301 291 288 281 289 304 302 311
240 228 197 187 180 175 179 180 182 182 184 182 175 172 171 167 165 161 159 152 145 141 137 136 130 123 110 92 70 39 12 0 349 332 309 301 278 269 286 297 303 302 308
235 216 201 190 187 175 173 171 174 174 179 174 171 174 171 164 162 164 159 152 147 143 139 139 133 123 105 79 40 6 351 337 330 325 311 305 297 272 286 288 306 310 300
227 222 202 185 180 176 172 170 165 166 169 174 175 170 173 172 162 155 152 147 143 139 140 138 134 119 99 47 1 344 334 330 331 324 314 305 303 291 290 279 285 297 307
239 206 195 181 175 173 162 159 163 160 167 173 171 168 166 160 152 150 148 145 140 139 139 137 130 119 83 5 341 335 332 330 326 319 311 310 310 303 298 287 281 279 286
273 211 187 165 154 150 150 148 153 158 158 164 161 157 152 150 149 148 144 142 139 139 138 136 129 110 36 346 336 336 331 323 318 320 317 314 316 307 302 294 285 281 282
297 171 149 143 141 139 140 141 142 146 153 155 153 149 147 147 146 144 142 142 139 137 135 131 122 76 6 348 341 333 325 322 323 326 323 319 317 307 302 297 292 289 288
39 105 129 141 141 141 137 137 137 140 147 149 148 146 145 145 144 143 142 142 139 134 128 121 95 34 360 348 337 326 325 323 325 325 320 317 315 309 305 301 296 292 288
258 141 133 133 131 134 133 132 129 140 145 146 145 145 146 145 143 141 141 140 135 127 119 102 56 13 353 341 336 331 325 320 321 322 321 317 311 309 306 302 295 295 296
201 168 142 134 129 128 128 130 132 141 147 145 145 145 143 142 140 140 140 135 128 118 107 79 29 0 345 340 331 326 322 319 318 317 317 313 311 307 304 302 305 303 299
194 161 145 142 138 137 135 133 134 140 148 146 144 145 143 141 140 138 135 130 121 112 94 43 8 350 342 338 331 326 318 316 312 312 312 313 315 309 305 306 303 304 300
172 161 156 149 143 141 139 136 139 147 147 145 145 146 143 139 138 137 133 126 120 107 67 16 351 344 343 339 329 324 316 315 314 314 313 312 306 305 306 303 303 301 301
153 146 140 135 133 133 132 138 142 144 144 143 146 146 144 138 138 136 132 127 114 84 35 359 344 342 343 338 329 324 317 317 315 316 314 306 304 307 310 311 312 313 309
145 139 138 136 136 135 138 137 136 141 144 145 147 147 145 139 138 135 132 122 95 49 3 349 347 343 341 338 329 328 320 317 316 314 310 310 311 315 316 319 316 313 308
130 131 132 132 132 137 140 133 134 140 141 147 145 143 141 138 139 135 124 102 66 5 352 353 347 345 338 340 333 329 322 321 318 315 313 312 319 319 319 320 318 312 308
115 120 125 132 138 140 139 130 136 135 145 141 137 136 138 137 132 123 110 89 26 5 353 347 349 347 347 340 332 333 327 321 317 320 320 321 321 320 321 317 315 305 311
103 115 116 119 131 139 138 127 125 140 139 137 135 135 134 128 123 117 104 55 17 1 356 345 341 345 347 347 335 329 325 323 323 320 320 317 320 320 317 315 314 315 317
99 110 116 112 117 132 138 123 135 142 139 137 134 131 128 126 121 106 78 29 8 359 351 344 337 336 337 337 336 325 325 325 323 320 316 318 319 318 317 318 318 319 319
96 112 113 108 101 125 132 135 142 142 141 134 132 132 130 124 108 75 44 15 0 353 348 341 332 328 327 324 324 326 324 323 325 322 321 319 318 317 316 321 323 322 320
101 109 110 105 105 125 131 138 142 143 135 133 134 131 126 115 94 46 24 6 0 351 335 329 326 322 321 324 327 327 322 328 325 325 319 323 326 325 326 324 322 323 322
107 101 98 104 114 125 130 135 141 144 138 133 132 128 120 97 49 23 6 10 358 344 333 328 326 320 318 324 326 324 326 326 326 324 324 324 323 321 321 319 316 318 317
Height
737 736 735 736 739 740 741 742 744 748 750 754 759 767 772 778 782 787 791 794 799 799 803 805 806 808 810 812 812 812 812 810 807 804 801 800 799 799 800 800 799 799 798
731 730 730 730 732 734 736 737 740 744 747 751 754 761 768 777 781 785 790 794 798 798 803 803 806 808 810 811 811 811 811 810 808 807 805 803 800 798 798 796 797 797 796
722 723 724 725 725 728 732 732 735 740 744 747 751 759 769 776 782 786 790 795 797 799 802 804 806 808 810 810 811 811 811 810 809 808 808 805 805 804 796 795 794 794 793
713 713 714 718 718 720 727 730 733 737 741 745 748 752 760 769 778 782 787 793 796 799 802 803 806 807 809 810 811 811 810 810 809 810 809 809 810 807 798 795 793 792 791
704 704 704 707 709 713 719 724 730 735 738 743 747 752 761 767 774 780 786 791 794 798 801 803 805 807 808 809 809 810 810 809 809 809 809 808 808 808 807 793 789 788 786
697 696 697 701 704 708 714 721 726 732 737 741 746 750 756 762 772 778 784 790 794 797 800 802 805 807 808 808 808 809 808 808 807 807 807 807 807 805 804 798 790 786 780
690 692 695 697 701 703 709 716 722 729 735 740 745 749 755 759 765 772 780 786 791 795 798 802 804 806 807 806 807 807 807 806 806 805 805 804 804 803 802 798 789 782 777
685 685 685 689 695 697 702 709 717 725 733 740 744 750 756 762 767 772 779 784 788 792 796 801 803 805 805 805 806 806 805 804 803 803 802 802 802 800 799 796 791 777 770
678 679 680 682 689 695 697 702 711 721 730 738 743 750 756 762 768 775 780 783 787 790 796 800 802 802 804 804 804 804 803 802 801 801 800 800 798 796 794 792 791 787 768
673 674 677 680 686 693 697 703 710 718 728 736 743 749 757 764 769 775 779 783 787 790 795 798 800 801 803 803 803 802 801 800 799 798 797 796 794 792 790 788 786 784 779
670 670 673 678 684 691 698 703 709 717 727 735 742 749 757 764 771 776 780 784 787 790 794 797 799 800 801 801 801 800 799 798 797 796 794 792 791 788 786 783 780 777 774
673 673 676 680 684 692 700 705 711 719 728 736 743 750 757 764 771 777 781 785 787 791 793 796 798 799 799 799 798 797 797 796 794 792 790 788 786 784 781 778 775 772 768
683 681 682 684 687 693 701 709 714 721 730 739 745 752 758 764 772 777 781 786 788 791 794 796 797 797 797 797 796 795 794 793 791 788 786 785 782 779 776 773 769 765 760
688 686 685 688 693 698 703 710 717 723 733 742 749 754 760 766 772 778 782 786 789 791 793 795 795 795 795 794 794 793 791 789 787 785 783 780 778 774 771 767 763 758 753
688 688 690 692 695 702 708 714 718 726 736 744 752 758 763 767 773 779 783 787 789 790 792 793 793 794 793 792 791 790 787 785 783 781 778 775 772 770 766 762 757 753 746
684 687 691 694 697 703 710 715 721 729 738 746 754 760 764 769 774 779 784 786 788 790 791 792 792 792 791 789 788 787 784 782 779 776 773 770 766 763 760 756 752 747 740
679 686 692 695 700 705 709 717 724 732 740 748 756 762 766 770 776 780 784 786 788 789 790 790 790 790 788 786 785 783 781 778 775 771 767 764 761 757 752 747 743 738 734
677 684 691 699 704 708 714 720 728 736 742 751 758 763 767 772 777 781 784 786 787 788 789 789 789 786 785 783 782 779 776 773 770 767 763 759 755 751 747 740 735 731 726
676 683 691 700 707 711 718 724 732 739 747 754 759 764 768 773 778 781 783 785 786 787 788 787 786 783 782 780 778 775 772 769 765 762 758 754 751 746 740 735 729 723 719
679 685 694 702 709 717 720 726 736 745 751 755 760 766 770 774 778 781 783 784 785 787 786 785 783 781 779 776 774 772 768 764 761 757 754 750 746 740 735 730 724 718 712
684 690 697 704 712 718 722 732 741 748 753 758 763 768 772 775 779 781 782 784 785 785 784 782 780 779 776 773 771 768 765 761 757 753 748 744 740 735 730 725 719 714 707
691 696 701 710 717 721 725 736 745 751 756 761 766 770 773 776 779 781 783 784 784 783 781 779 777 775 773 770 767 765 762 758 754 748 744 739 735 731 725 720 715 709 704
700 703 707 714 722 727 730 738 749 754 759 763 767 771 774 777 780 782 783 783 782 781 780 777 774 772 769 766 764 761 758 754 750 746 741 736 731 725 720 715 710 705 700
705 710 713 719 726 731 737 744 751 757 761 765 770 773 776 779 781 782 782 782 781 779 777 775 773 770 767 764 761 758 753 750 746 741 736 731 726 721 716 710 706 702 697
713 717 720 723 730 738 745 751 756 760 764 768 772 775 778 780 781 781 781 780 779 778 776 774 772 769 765 762 759 755 751 747 743 737 732 727 722 717 712 707 702 698 693
720 723 726 731 741 746 752 757 761 764 766 770 774 777 779 780 780 780 779 779 778 776 775 773 771 767 763 759 756 752 747 743 739 734 730 725 721 716 711 705 699 694 689